SCP
0 0 0 0 -0 -0 0 0 0 0 0 0 -0 -0 0 0 0 0 0 0 -0 -0 -0 0 0 0 0 0 0 0 0 0 0 0 0 0 0 0 0 0 0 0 0 0
0 0 0 0 -0 0 0 0 0 0 0 -0 0 0 -0 -0 0 0 0 0 -0 -0 -0 -0 -0 0 0 0 0 0 0 0 0 0 0 0 0 0 0 0 0 0 0 0
0 0 0 0 -0 0 -0 -0 -0 -0 -0 0 -0 -0 -0 0 0 0 0 0 -0 -0 -0 -0 0 0 0 0 0 0 0 0 0 0 0 0 0 0 0 0 0 0 0 0
0 0 0 -0 0 0 -0 0 -0 0 0 -0 -0 0 0 0 0 0 0 0 0 -0 -0 -0 0 0 0 0 0 0 0 0 0 0 0 0 0 0 0 0 0 0 0 0
0 0 0 0 -0 -0 -0 -0 -0 -0 -0 0 -0 -0 -0 0 0 0 0 0 0 0 -0 -0 0 0 0 0 0 0 0 0 0 0 0 0 0 0 0 0 0 0 0 0
0 0 0 0 -0 -0 -0 0 -0 -0 -0 0 0 0 -0 0 0 0 0 0 0 0 0 0 0 -0 0 0 0 0 0 0 0 0 0 0 0 0 0 0 0 0 0 0
0 0 -0 0 -0 0 0 -0 -0 -0 -0 -0 0 0 -0 0 -0 0 0 0 0 0 0 0 0 0 0 0 0 0 0 0 0 0 0 0 0 0 0 0 0 0 0 0
0 0 0 0 0 0 -0 -0 -0 -0 -0 -0 -0 -0 0 0 0 0 0 0 0 0 0 0 0 0 0 0 0 0 0 0 0 0 0 0 0 0 0 0 0 0 0 0
-0 0 0 0 0 0 -0 -0 -0 -0 -0 0 -0 0 0 0 -0 -0 0 0 0 0 0 0 0 0 0 0 0 0 0 0 0 0 0 0 0 0 0 0 0 0 0 0
0 0 0 0 0 0 -0 -0 -0 -0 0 0 0 -0 0 -0 -0 -0 -0 0 0 -0 -0 -0 -0 -0 0 -0 -0 0 0 0 0 0 0 0 0 0 0 0 0 0 0 0
0 0 -0 -0 0 0 0 -0 -0 0 0 0 0 0 0 0 0 -0 0 -0 -0 -0 0 -0 -0 -0 -0 0 0 -0 -0 -0 -0 -0 0 0 0 0 0 0 0 0 0 0
0 -0 -0 -0 -0 0 -0 0 0 0 0 0 0 0 0 0 0 0 0 0 0 -0 0 0 -0 -0 -0 -0 -0 -0 -0 -0 -0 -0 -0 -0 -0 -0 -0 0 0 0 0 0
-0 -0 -0 0 0 0 0 0 0 0 0 0 0 0 0 0 0 0 0 0 0 0 0 -0 -0 -0 -0 -0 -0 -0 -0 -0 -0 -0 -0 -0 -0 -0 -0 0 0 0 0 0
0 0 0 0 0 0 0 0 0 0 0 0 0 0 0 0 0 0 0 0 0 0 0 -0 -0 -0 -0 -0 -0 -0 -0 -0 -0 -0 -0 -0 -0 -0 -0 -0 -0 0 0 0
0 -0 0 -0 0 0 0 0 0 0 0 0 0 0 0 0 0 0 0 0 0 0 0 0 0 -0 -0 -0 -0 -0 -0 -0 -0 -0 -0 -0 0 0 0 0 0 0 0 0
0 0 0 0 0 0 0 0 0 0 0 0 0 0 0 0 0 0 0 0 0 0 0 0 0 -0 -0 -0 -0 -0 -0 -0 -0 0 0 0 0 0 0 0 0 0 0 0
0 0 0 0 0 0 0 0 0 0 0 0 0 0 0 0 0 0 0 0 0 0 0 0 0 0 0 -0 0 0 0 0 0 0 0 0 0 0 0 0 0 0 0 0
0 0 0 0 0 -0 0 0 0 0 0 0 0 0 0 0 0 0 0 0 0 0 0 0 0 0 0 0 0 0 0 0 0 0 0 0 0 0 0 0 0 0 0 0
0 0 0 0 -0 -0 -0 0 0 0 0 0 0 0 0 0 0 0 0 0 0 0 0 0 0 0 0 0 0 0 0 0 0 0 0 0 0 0 0 0 0 0 0 0
0 0 0 0 0 0 -0 0 0 0 0 0 0 0 0 0 0 0 0 0 0 0 0 0 0 0 0 0 0 0 0 0 0 0 0 0 0 0 0 0 0 0 0 0
0 0 0 0 0 0 0 0 0 0 0 0 0 0 0 0 0 0 0 0 0 0 0 0 0 0 0 0 0 0 0 0 0 0 0 0 0 0 0 0 0 0 0 0
0 0 0 0 0 0 0 0 0 0 0 0 0 0 0 0 0 0 0 0 0 0 0 0 0 0 0 0 0 0 0 0 0 0 0 0 0 0 0 0 0 0 0 0
0 0 0 0 0 0 0 0 0 0 0 0 0 0 0 0 0 0 0 0 0 0 0 0 0 0 0 0 0 0 0 0 0 0 0 0 0 0 0 0 0 0 0 0
0 0 0 0 0 0 0 0 0 0 0 0 0 0 0 0 0 0 0 0 0 0 0 0 0 0 0 0 0 0 0 0 0 0 0 0 0 0 0 0 0 0 0 0
0 0 0 0 0 0 0 0 0 0 0 0 0 0 0 0 0 0 0 0 0 0 0 0 0 0 0 0 0 0 0 0 0 0 0 0 0 0 0 0 0 0 0 0
0 0 0 0 0 0 0 0 0 0 0 0 0 0 0 0 0 0 0 0 0 0 0 0 0 0 0 0 0 0 0 0 0 0 0 0 0 0 0 0 0 0 0 0
0 0 0 0 0 0 0 0 0 0 0 0 0 0 0 0 0 0 0 0 0 0 0 0 0 0 0 0 0 0 0 0 0 0 0 0 0 0 0 0 0 0 0 0
Wind_Speed_500mb
24 32 10 21 31 34 21 28 14 33 9 33 20 11 15 28 38 40 51 61 65 66 65 66 64 60 55 58 51 65 74 75 73 74 68 61 58 48 42 42 39 30 30 34
8 13 11 13 32 25 21 24 26 31 33 5 4 10 19 29 33 36 47 57 61 62 64 65 63 61 59 63 63 63 68 65 62 59 61 59 51 48 41 35 34 31 28 27
8 2 9 17 14 9 6 7 9 5 9 4 6 6 10 27 31 34 43 51 59 60 60 58 58 57 56 63 66 68 74 63 55 47 43 42 37 36 34 29 26 29 32 31
3 4 4 13 6 8 10 11 12 15 12 6 6 4 8 18 22 29 35 42 48 49 53 56 54 57 60 63 68 74 70 72 68 57 49 37 26 27 25 21 17 16 14 17
3 6 12 14 5 8 7 8 7 9 2 2 5 2 3 12 17 25 31 36 39 41 42 45 50 51 58 63 66 69 76 71 63 56 51 44 38 28 18 9 11 15 16 16
5 5 8 11 9 8 6 5 3 6 4 6 5 5 6 4 12 20 27 35 41 41 39 40 43 47 52 59 65 69 69 64 57 52 48 44 40 36 31 23 15 12 9 9
4 1 14 11 11 9 10 10 5 8 11 16 6 6 11 9 11 16 23 32 38 40 44 45 43 43 47 51 60 56 56 55 55 53 51 45 36 31 28 26 22 19 12 7
5 4 13 12 8 9 10 4 8 10 14 20 16 13 15 11 10 14 18 27 35 41 44 44 45 46 48 52 48 47 47 49 51 49 46 43 38 35 29 23 20 21 18 12
12 10 8 19 12 10 11 16 15 14 12 17 20 23 19 13 10 11 17 25 32 39 42 42 43 45 48 50 46 42 39 41 41 40 42 40 38 36 31 27 23 20 15 13
1 6 10 21 22 29 25 21 15 20 15 20 24 25 23 18 13 9 11 18 26 33 39 43 44 43 43 42 42 42 41 40 38 36 34 34 34 34 31 28 25 20 16 13
8 15 17 17 14 13 12 14 9 11 14 19 25 27 26 22 17 9 6 11 17 26 35 40 42 43 42 40 39 39 39 38 37 34 32 30 28 26 27 28 28 25 21 15
6 11 13 17 22 15 24 18 15 13 16 22 27 29 30 26 19 11 3 5 12 16 23 30 35 36 37 35 32 31 30 31 32 32 31 28 24 21 20 19 18 19 19 19
10 30 37 35 31 26 29 25 18 19 19 24 30 33 34 31 25 17 9 3 6 12 16 22 28 31 32 33 31 28 27 27 27 25 23 21 20 19 13 13 15 16 17 18
16 24 19 10 13 25 21 17 26 26 23 25 27 34 36 35 31 23 16 8 7 12 17 19 25 28 31 33 33 32 31 29 29 28 24 20 18 16 15 13 10 10 14 14
19 42 42 48 45 37 29 35 31 31 30 32 34 35 39 42 36 27 22 14 10 13 17 19 22 28 32 35 34 32 30 27 25 25 26 25 22 20 18 17 15 14 12 13
53 47 31 27 31 28 27 27 29 29 30 33 35 39 39 37 35 32 27 19 14 16 20 21 25 28 32 34 34 33 31 28 26 24 22 23 24 23 23 21 18 15 15 13
46 38 46 42 40 37 30 21 21 25 26 27 34 34 37 40 39 35 30 22 18 20 25 26 27 32 34 35 33 29 27 27 27 27 25 24 22 20 20 20 22 20 17 16
37 36 30 33 41 44 36 22 18 19 17 15 21 31 37 40 38 33 28 24 21 24 27 29 33 35 35 32 28 26 26 27 27 26 26 26 25 23 20 19 22 22 20 19
26 22 21 26 29 32 27 10 12 14 13 15 18 23 28 30 31 27 26 24 25 27 29 31 34 35 31 28 26 25 25 25 25 25 25 26 26 25 23 21 21 23 22 21
19 14 22 25 24 22 18 14 14 12 10 11 15 20 25 23 23 23 21 23 25 27 31 33 31 29 26 26 28 27 26 26 25 25 25 25 25 24 23 22 22 24 24 21
16 17 21 21 18 16 13 10 10 7 7 9 11 14 14 15 17 16 18 20 25 29 29 29 26 26 27 28 27 28 29 29 27 26 24 23 23 23 22 22 22 24 27 27
16 18 19 21 21 19 19 20 22 22 20 17 12 10 7 6 8 12 19 22 25 22 20 22 25 28 30 33 33 33 34 33 31 30 29 28 26 23 22 22 22 23 26 29
15 15 18 18 20 22 22 19 18 17 15 13 9 5 6 11 15 15 18 15 15 20 23 26 29 31 32 33 33 33 33 33 33 34 33 32 30 28 26 23 22 22 24 27
13 13 15 17 18 18 14 17 16 14 13 12 12 12 13 13 13 11 12 17 21 23 25 26 27 28 29 29 29 29 30 32 33 33 33 33 32 31 30 27 24 22 22 25
17 16 15 14 13 13 14 14 14 14 14 13 11 10 10 11 12 14 16 18 20 20 19 20 19 19 18 18 18 18 19 21 23 26 29 31 31 32 32 31 28 26 24 24
15 14 14 14 13 14 15 16 15 13 12 12 11 12 13 13 14 14 15 15 14 14 15 15 15 15 15 15 15 14 14 14 15 17 20 23 27 29 31 31 31 30 28 26
14 14 14 15 16 15 15 13 11 11 10 12 13 14 14 15 15 15 15 17 17 17 17 17 17 17 17 17 16 16 16 15 14 13 14 15 18 21 24 27 29 31 30 29
Wind_Direction_500mb
242 261 260 273 273 277 246 235 241 283 255 294 321 329 330 335 344 355 1 8 11 12 18 25 33 35 47 65 73 91 102 112 113 120 138 137 149 153 160 166 167 171 172 187
271 253 213 274 266 267 246 257 248 267 281 318 298 338 347 351 352 1 5 13 17 18 22 24 34 35 49 58 68 82 91 96 104 109 114 124 127 139 156 164 168 167 172 184
252 336 340 305 249 209 246 204 172 260 248 24 321 335 342 344 0 7 15 20 20 21 24 26 33 48 49 58 70 75 83 87 93 101 111 115 126 132 143 144 146 158 181 194
221 4 333 243 245 192 202 258 234 276 267 230 263 212 327 350 350 4 15 18 17 18 26 31 38 47 56 58 66 72 75 80 83 88 94 101 114 116 122 138 144 137 164 161
194 194 294 302 260 175 118 290 208 235 285 302 350 207 297 350 15 14 15 19 21 20 27 35 40 46 58 63 61 64 66 70 76 80 82 85 89 95 99 134 133 142 140 167
95 143 225 242 271 222 121 340 255 188 221 165 153 20 266 34 39 27 22 22 25 29 36 43 45 47 54 59 61 60 63 66 70 75 81 83 84 90 94 104 128 178 199 207
202 246 287 251 231 180 66 252 239 209 201 173 201 218 151 114 63 45 33 29 30 31 39 45 46 51 57 57 59 59 64 67 69 69 71 71 75 79 81 86 92 100 112 144
105 141 279 172 132 152 216 284 287 273 235 206 209 183 164 135 91 57 41 37 34 36 42 45 48 50 54 59 58 57 59 63 65 66 68 68 67 68 65 65 73 78 77 85
192 215 238 202 240 232 282 303 296 283 283 210 194 188 177 158 124 80 49 38 35 36 39 44 48 50 53 55 57 58 59 60 60 62 64 64 61 61 60 59 57 61 69 76
87 272 233 249 241 268 296 294 298 288 280 214 195 190 188 178 162 134 69 43 37 35 36 38 40 43 47 49 50 50 53 56 58 57 57 56 54 55 53 52 52 53 51 53
250 285 286 284 262 246 305 313 292 282 258 223 207 200 197 191 186 168 93 45 37 36 34 33 32 31 32 34 36 37 39 43 46 49 51 48 50 47 43 41 39 34 33 33
241 295 249 267 320 287 304 291 291 256 232 216 214 213 205 203 200 196 180 31 27 31 33 29 29 26 24 25 26 28 29 32 32 32 34 38 42 34 34 36 36 29 17 12
274 297 296 291 297 302 294 286 301 274 243 227 216 210 213 211 209 211 216 260 359 7 22 22 19 21 15 16 16 14 17 18 19 22 23 22 20 19 22 6 10 10 10 4
319 336 305 319 310 309 300 279 293 278 248 232 226 218 213 215 215 216 226 252 315 340 360 5 0 4 4 5 4 0 359 359 358 357 360 2 1 0 0 355 339 329 337 343
311 321 306 297 297 290 290 277 275 264 249 229 221 222 220 216 215 216 227 243 286 321 342 343 342 349 351 351 349 348 346 345 344 342 337 335 336 334 333 335 330 316 310 315
315 317 313 316 315 311 294 287 278 269 256 241 232 226 222 222 220 221 228 241 273 306 319 327 328 336 338 338 336 337 337 336 335 332 329 327 326 323 319 315 313 303 291 287
317 321 325 329 334 326 306 288 278 270 271 256 242 234 226 222 221 222 228 245 272 297 309 314 320 325 327 327 326 325 326 326 324 323 321 319 316 314 307 298 297 298 284 272
303 302 304 308 318 324 322 272 283 276 257 246 237 229 227 225 228 226 233 252 273 290 298 305 313 316 318 318 317 318 319 319 318 318 316 314 311 306 299 292 289 290 285 269
316 314 314 314 315 319 330 305 293 302 256 226 229 224 224 223 223 224 235 254 272 286 295 303 307 310 309 307 307 310 309 309 311 312 311 310 307 304 297 288 278 279 282 273
336 336 335 331 328 331 330 312 290 289 258 232 219 207 207 204 215 226 241 261 276 287 296 302 303 302 299 298 301 300 299 300 303 304 306 307 305 301 295 285 273 265 267 271
8 359 355 1 8 11 19 32 58 78 107 125 140 151 155 193 215 236 258 271 284 291 296 298 297 295 296 296 296 296 296 295 295 294 298 301 301 301 296 285 274 264 256 254
14 14 22 29 36 52 70 82 90 93 95 98 113 132 162 205 248 270 279 286 291 293 292 292 292 295 295 294 293 291 288 286 285 285 286 287 290 294 294 287 278 267 257 252
16 24 36 47 54 65 70 75 78 79 80 76 67 34 326 304 300 301 299 296 295 299 299 297 296 295 294 293 291 288 287 284 282 280 279 278 279 280 281 282 278 269 259 252
33 42 48 56 55 54 56 54 47 37 23 6 347 335 328 324 323 321 310 304 303 304 302 301 302 302 301 300 297 294 288 282 278 276 276 275 273 271 271 271 269 266 257 249
55 55 48 51 42 34 25 16 5 357 352 352 355 354 348 343 334 325 321 318 318 320 322 321 323 324 325 321 315 309 302 296 289 283 278 275 271 267 264 263 262 257 253 247
45 41 34 27 16 4 355 350 352 359 4 13 7 358 351 348 346 347 351 354 360 4 6 6 4 1 360 357 351 345 335 322 311 300 290 282 275 269 264 259 255 252 248 241
25 17 2 354 348 342 346 356 9 15 16 12 3 5 9 20 29 35 36 35 31 26 20 15 11 6 3 359 355 352 352 350 346 337 322 307 294 284 274 264 255 249 244 237
Wind_Speed_850mb
24 32 10 21 31 34 21 28 14 33 9 33 20 11 15 28 38 40 51 61 65 66 65 66 64 60 55 58 51 65 74 75 73 74 68 61 58 48 42 42 39 30 30 34
8 13 11 13 32 25 21 24 26 31 33 5 4 10 19 29 33 36 47 57 61 62 64 65 63 61 59 63 63 63 68 65 62 59 61 59 51 48 41 35 34 31 28 27
8 2 9 17 14 9 6 7 9 5 9 4 6 6 10 27 31 34 43 51 59 60 60 58 58 57 56 63 66 68 74 63 55 47 43 42 37 36 34 29 26 29 32 31
3 4 4 13 6 8 10 11 12 15 12 6 6 4 8 18 22 29 35 42 48 49 53 56 54 57 60 63 68 74 70 72 68 57 49 37 26 27 25 21 17 16 14 17
3 6 12 14 5 8 7 8 7 9 2 2 5 2 3 12 17 25 31 36 39 41 42 45 50 51 58 63 66 69 76 71 63 56 51 44 38 28 18 9 11 15 16 16
5 5 8 11 9 8 6 5 3 6 4 6 5 5 6 4 12 20 27 35 41 41 39 40 43 47 52 59 65 69 69 64 57 52 48 44 40 36 31 23 15 12 9 9
4 1 14 11 11 9 10 10 5 8 11 16 6 6 11 9 11 16 23 32 38 40 44 45 43 43 47 51 60 56 56 55 55 53 51 45 36 31 28 26 22 19 12 7
5 4 13 12 8 9 10 4 8 10 14 20 16 13 15 11 10 14 18 27 35 41 44 44 45 46 48 52 48 47 47 49 51 49 46 43 38 35 29 23 20 21 18 12
12 10 8 19 12 10 11 16 15 14 12 17 20 23 19 13 10 11 17 25 32 39 42 42 43 45 48 50 46 42 39 41 41 40 42 40 38 36 31 27 23 20 15 13
1 6 10 21 22 29 25 21 15 20 15 20 24 25 23 18 13 9 11 18 26 33 39 43 44 43 43 42 42 42 41 40 38 36 34 34 34 34 31 28 25 20 16 13
8 15 17 17 14 13 12 14 9 11 14 19 25 27 26 22 17 9 6 11 17 26 35 40 42 43 42 40 39 39 39 38 37 34 32 30 28 26 27 28 28 25 21 15
6 11 13 17 22 15 24 18 15 13 16 22 27 29 30 26 19 11 3 5 12 16 23 30 35 36 37 35 32 31 30 31 32 32 31 28 24 21 20 19 18 19 19 19
10 30 37 35 31 26 29 25 18 19 19 24 30 33 34 31 25 17 9 3 6 12 16 22 28 31 32 33 31 28 27 27 27 25 23 21 20 19 13 13 15 16 17 18
16 24 19 10 13 25 21 17 26 26 23 25 27 34 36 35 31 23 16 8 7 12 17 19 25 28 31 33 33 32 31 29 29 28 24 20 18 16 15 13 10 10 14 14
19 42 42 48 45 37 29 35 31 31 30 32 34 35 39 42 36 27 22 14 10 13 17 19 22 28 32 35 34 32 30 27 25 25 26 25 22 20 18 17 15 14 12 13
53 47 31 27 31 28 27 27 29 29 30 33 35 39 39 37 35 32 27 19 14 16 20 21 25 28 32 34 34 33 31 28 26 24 22 23 24 23 23 21 18 15 15 13
46 38 46 42 40 37 30 21 21 25 26 27 34 34 37 40 39 35 30 22 18 20 25 26 27 32 34 35 33 29 27 27 27 27 25 24 22 20 20 20 22 20 17 16
37 36 30 33 41 44 36 22 18 19 17 15 21 31 37 40 38 33 28 24 21 24 27 29 33 35 35 32 28 26 26 27 27 26 26 26 25 23 20 19 22 22 20 19
26 22 21 26 29 32 27 10 12 14 13 15 18 23 28 30 31 27 26 24 25 27 29 31 34 35 31 28 26 25 25 25 25 25 25 26 26 25 23 21 21 23 22 21
19 14 22 25 24 22 18 14 14 12 10 11 15 20 25 23 23 23 21 23 25 27 31 33 31 29 26 26 28 27 26 26 25 25 25 25 25 24 23 22 22 24 24 21
16 17 21 21 18 16 13 10 10 7 7 9 11 14 14 15 17 16 18 20 25 29 29 29 26 26 27 28 27 28 29 29 27 26 24 23 23 23 22 22 22 24 27 27
16 18 19 21 21 19 19 20 22 22 20 17 12 10 7 6 8 12 19 22 25 22 20 22 25 28 30 33 33 33 34 33 31 30 29 28 26 23 22 22 22 23 26 29
15 15 18 18 20 22 22 19 18 17 15 13 9 5 6 11 15 15 18 15 15 20 23 26 29 31 32 33 33 33 33 33 33 34 33 32 30 28 26 23 22 22 24 27
13 13 15 17 18 18 14 17 16 14 13 12 12 12 13 13 13 11 12 17 21 23 25 26 27 28 29 29 29 29 30 32 33 33 33 33 32 31 30 27 24 22 22 25
17 16 15 14 13 13 14 14 14 14 14 13 11 10 10 11 12 14 16 18 20 20 19 20 19 19 18 18 18 18 19 21 23 26 29 31 31 32 32 31 28 26 24 24
15 14 14 14 13 14 15 16 15 13 12 12 11 12 13 13 14 14 15 15 14 14 15 15 15 15 15 15 15 14 14 14 15 17 20 23 27 29 31 31 31 30 28 26
14 14 14 15 16 15 15 13 11 11 10 12 13 14 14 15 15 15 15 17 17 17 17 17 17 17 17 17 16 16 16 15 14 13 14 15 18 21 24 27 29 31 30 29
Wind_Direction_850mb
242 261 260 273 273 277 246 235 241 283 255 294 321 329 330 335 344 355 1 8 11 12 18 25 33 35 47 65 73 91 102 112 113 120 138 137 149 153 160 166 167 171 172 187
271 253 213 274 266 267 246 257 248 267 281 318 298 338 347 351 352 1 5 13 17 18 22 24 34 35 49 58 68 82 91 96 104 109 114 124 127 139 156 164 168 167 172 184
252 336 340 305 249 209 246 204 172 260 248 24 321 335 342 344 0 7 15 20 20 21 24 26 33 48 49 58 70 75 83 87 93 101 111 115 126 132 143 144 146 158 181 194
221 4 333 243 245 192 202 258 234 276 267 230 263 212 327 350 350 4 15 18 17 18 26 31 38 47 56 58 66 72 75 80 83 88 94 101 114 116 122 138 144 137 164 161
194 194 294 302 260 175 118 290 208 235 285 302 350 207 297 350 15 14 15 19 21 20 27 35 40 46 58 63 61 64 66 70 76 80 82 85 89 95 99 134 133 142 140 167
95 143 225 242 271 222 121 340 255 188 221 165 153 20 266 34 39 27 22 22 25 29 36 43 45 47 54 59 61 60 63 66 70 75 81 83 84 90 94 104 128 178 199 207
202 246 287 251 231 180 66 252 239 209 201 173 201 218 151 114 63 45 33 29 30 31 39 45 46 51 57 57 59 59 64 67 69 69 71 71 75 79 81 86 92 100 112 144
105 141 279 172 132 152 216 284 287 273 235 206 209 183 164 135 91 57 41 37 34 36 42 45 48 50 54 59 58 57 59 63 65 66 68 68 67 68 65 65 73 78 77 85
192 215 238 202 240 232 282 303 296 283 283 210 194 188 177 158 124 80 49 38 35 36 39 44 48 50 53 55 57 58 59 60 60 62 64 64 61 61 60 59 57 61 69 76
87 272 233 249 241 268 296 294 298 288 280 214 195 190 188 178 162 134 69 43 37 35 36 38 40 43 47 49 50 50 53 56 58 57 57 56 54 55 53 52 52 53 51 53
250 285 286 284 262 246 305 313 292 282 258 223 207 200 197 191 186 168 93 45 37 36 34 33 32 31 32 34 36 37 39 43 46 49 51 48 50 47 43 41 39 34 33 33
241 295 249 267 320 287 304 291 291 256 232 216 214 213 205 203 200 196 180 31 27 31 33 29 29 26 24 25 26 28 29 32 32 32 34 38 42 34 34 36 36 29 17 12
274 297 296 291 297 302 294 286 301 274 243 227 216 210 213 211 209 211 216 260 359 7 22 22 19 21 15 16 16 14 17 18 19 22 23 22 20 19 22 6 10 10 10 4
319 336 305 319 310 309 300 279 293 278 248 232 226 218 213 215 215 216 226 252 315 340 360 5 0 4 4 5 4 0 359 359 358 357 360 2 1 0 0 355 339 329 337 343
311 321 306 297 297 290 290 277 275 264 249 229 221 222 220 216 215 216 227 243 286 321 342 343 342 349 351 351 349 348 346 345 344 342 337 335 336 334 333 335 330 316 310 315
315 317 313 316 315 311 294 287 278 269 256 241 232 226 222 222 220 221 228 241 273 306 319 327 328 336 338 338 336 337 337 336 335 332 329 327 326 323 319 315 313 303 291 287
317 321 325 329 334 326 306 288 278 270 271 256 242 234 226 222 221 222 228 245 272 297 309 314 320 325 327 327 326 325 326 326 324 323 321 319 316 314 307 298 297 298 284 272
303 302 304 308 318 324 322 272 283 276 257 246 237 229 227 225 228 226 233 252 273 290 298 305 313 316 318 318 317 318 319 319 318 318 316 314 311 306 299 292 289 290 285 269
316 314 314 314 315 319 330 305 293 302 256 226 229 224 224 223 223 224 235 254 272 286 295 303 307 310 309 307 307 310 309 309 311 312 311 310 307 304 297 288 278 279 282 273
336 336 335 331 328 331 330 312 290 289 258 232 219 207 207 204 215 226 241 261 276 287 296 302 303 302 299 298 301 300 299 300 303 304 306 307 305 301 295 285 273 265 267 271
8 359 355 1 8 11 19 32 58 78 107 125 140 151 155 193 215 236 258 271 284 291 296 298 297 295 296 296 296 296 296 295 295 294 298 301 301 301 296 285 274 264 256 254
14 14 22 29 36 52 70 82 90 93 95 98 113 132 162 205 248 270 279 286 291 293 292 292 292 295 295 294 293 291 288 286 285 285 286 287 290 294 294 287 278 267 257 252
16 24 36 47 54 65 70 75 78 79 80 76 67 34 326 304 300 301 299 296 295 299 299 297 296 295 294 293 291 288 287 284 282 280 279 278 279 280 281 282 278 269 259 252
33 42 48 56 55 54 56 54 47 37 23 6 347 335 328 324 323 321 310 304 303 304 302 301 302 302 301 300 297 294 288 282 278 276 276 275 273 271 271 271 269 266 257 249
55 55 48 51 42 34 25 16 5 357 352 352 355 354 348 343 334 325 321 318 318 320 322 321 323 324 325 321 315 309 302 296 289 283 278 275 271 267 264 263 262 257 253 247
45 41 34 27 16 4 355 350 352 359 4 13 7 358 351 348 346 347 351 354 360 4 6 6 4 1 360 357 351 345 335 322 311 300 290 282 275 269 264 259 255 252 248 241
25 17 2 354 348 342 346 356 9 15 16 12 3 5 9 20 29 35 36 35 31 26 20 15 11 6 3 359 355 352 352 350 346 337 322 307 294 284 274 264 255 249 244 237